GW1821 Weather Reports


Display with metric or nautical units.
time (UTC)temp
F
wind
direction
speed
MPH
gust
MPH
rain 1hr
in
rain 24hr
in
rain mn
in
humidity
%
barometer
mb
20260904075034 74 44 0.0 0.0 0.00 0.00 0.00 91 1006.8
20260904074528 74 44 0.0 0.0 0.00 0.00 0.00 91 1006.8
20260904074242 74 44 0.0 0.0 0.00 0.00 0.00 91 1006.7
20260904073512 74 44 0.0 0.0 0.00 0.00 0.00 91 1006.8
20260904073005 74 44 0.0 1.0 0.00 0.00 0.00 91 1006.7
20260904072509 74 44 0.0 1.0 0.00 0.00 0.00 91 1006.7
20260904072005 74 44 0.0 1.0 0.00 0.00 0.00 91 1006.7
20260904071500 74 44 0.0 1.0 0.00 0.00 0.00 90 1006.8
20260904071216 75 44 0.0 1.0 0.00 0.00 0.00 90 1006.8
20260904070452 75 44 0.0 0.0 0.00 0.00 0.00 90 1006.9
20260904065941 75 44 0.0 1.0 0.00 0.00 0.00 90 1006.8
20260904065406 75 44 0.0 1.0 0.00 0.00 0.00 90 1006.9
20260904064906 75 44 0.0 1.0 0.00 0.00 0.00 90 1006.9
20260904064353 75 44 0.0 2.0 0.00 0.00 0.00 90 1006.9
20260904064117 75 44 0.0 2.0 0.00 0.00 0.00 90 1006.9
20260904063345 75 44 0.0 1.0 0.00 0.00 0.00 90 1006.9
20260904062840 75 44 0.0 1.0 0.00 0.00 0.00 90 1007.0
20260904062543 75 44 0.0 1.0 0.00 0.00 0.00 89 1006.9
20260904061825 75 44 0.0 1.0 0.00 0.00 0.00 89 1006.9
20260904061315 75 44 0.0 1.0 0.00 0.00 0.00 89 1006.9
20260904060811 75 44 0.0 1.0 0.00 0.00 0.00 89 1007.0
20260904060312 75 44 0.0 1.0 0.00 0.00 0.00 89 1007.0
20260904060037 75 44 0.0 1.0 0.00 0.00 0.00 89 1007.0
20260904055525 75 44 0.0 1.0 0.00 0.00 0.00 88 1007.0
20260904054804 76 70 0.0 1.0 0.00 0.00 0.00 88 1007.0
20260904054519 76 83 0.0 1.0 0.00 0.00 0.00 88 1007.0
20260904053735 76 84 0.0 2.0 0.00 0.00 0.00 88 1006.9
20260904053216 76 89 0.0 2.0 0.00 0.00 0.00 88 1007.0
20260904052711 76 88 0.0 1.0 0.00 0.00 0.00 87 1007.0
20260904052154 76 88 0.0 1.0 0.00 0.00 0.00 87 1006.9
20260904052132 76 88 0.0 1.0 0.00 0.00 0.00 87 1006.9
20260904051117 76 88 0.0 1.0 0.00 0.00 0.00 87 1006.8
20260904050611 76 88 0.0 1.0 0.00 0.00 0.00 87 1006.8
20260904050112 76 88 0.0 1.0 0.00 0.00 0.00 87 1006.8
20260904045844 76 88 0.0 2.0 0.00 0.00 0.00 87 1006.9
20260904045104 76 88 0.0 2.0 0.00 0.00 0.00 87 1006.8
20260904044602 77 88 0.0 1.0 0.00 0.00 0.00 86 1006.8
20260904044104 77 89 0.0 2.0 0.00 0.00 0.00 86 1006.8
20260904043556 77 89 1.0 2.0 0.00 0.00 0.00 86 1006.8
20260904043047 77 88 0.0 2.0 0.00 0.00 0.00 86 1006.7
20260904042538 77 88 0.0 2.0 0.00 0.00 0.00 85 1006.9
20260904042040 77 88 0.0 2.0 0.00 0.00 0.00 85 1006.7
20260904041531 78 105 0.0 0.0 0.00 0.00 0.00 85 1006.7
20260904041017 78 105 0.0 0.0 0.00 0.00 0.00 84 1006.8
20260904040459 78 105 0.0 1.0 0.00 0.00 0.00 84 1006.8
20260904035952 78 105 0.0 1.0 0.00 0.00 0.00 84 1006.8
20260904035455 78 105 0.0 1.0 0.00 0.00 0.00 84 1006.7
20260904035156 79 105 0.0 1.0 0.00 0.00 0.00 83 1006.6
20260904034430 79 105 0.0 1.0 0.00 0.00 0.00 83 1006.6
20260904033926 79 105 0.0 1.0 0.00 0.00 0.00 83 1006.6
20260904033904 79 105 0.0 2.0 0.00 0.00 0.00 83 1006.6
20260904032911 79 105 0.0 2.0 0.00 0.00 0.00 82 1006.7
20260904032408 80 128 0.0 2.0 0.00 0.00 0.00 82 1006.6
20260904031903 80 127 1.0 6.0 0.00 0.00 0.00 82 1006.6
20260904031356 80 153 2.0 7.0 0.00 0.00 0.00 82 1006.5
20260904031056 80 96 3.0 7.0 0.00 0.00 0.00 81 1006.4
20260904030339 80 140 3.0 10.0 0.00 0.00 0.00 81 1006.3
20260904025835 80 146 3.0 10.0 0.00 0.00 0.00 81 1006.4
20260904025333 80 157 2.0 8.0 0.00 0.00 0.00 81 1006.4
20260904024831 80 134 2.0 7.0 0.00 0.00 0.00 80 1006.4
20260904024333 80 144 2.0 8.0 0.00 0.00 0.00 80 1006.5
20260904023827 80 157 2.0 8.0 0.00 0.00 0.00 80 1006.4
20260904023323 80 130 2.0 9.0 0.00 0.00 0.00 80 1006.4
20260904022821 81 60 2.0 9.0 0.00 0.00 0.00 79 1006.3
20260904022317 81 132 2.0 9.0 0.00 0.00 0.00 79 1006.3
20260904021814 81 157 2.0 6.0 0.00 0.00 0.00 79 1006.4
20260904021314 81 193 1.0 5.0 0.00 0.00 0.00 79 1006.4
20260904020812 81 165 2.0 7.0 0.00 0.00 0.00 79 1006.4
20260904020309 81 164 2.0 7.0 0.00 0.00 0.00 79 1006.3
20260904015805 81 149 1.0 5.0 0.00 0.00 0.00 79 1006.4
20260904015307 81 166 1.0 5.0 0.00 0.00 0.00 78 1006.4
20260904014806 81 157 0.0 2.0 0.00 0.00 0.00 78 1006.5
20260904014307 81 175 0.0 2.0 0.00 0.00 0.00 78 1006.4
20260904013803 82 175 0.0 2.0 0.00 0.00 0.00 78 1006.4
20260904013303 82 175 0.0 1.0 0.00 0.00 0.00 78 1006.4
20260904012753 82 175 0.0 1.0 0.00 0.00 0.00 78 1006.4
20260904012245 82 165 0.0 1.0 0.00 0.00 0.00 78 1006.3
20260904011738 82 166 0.0 1.0 0.00 0.00 0.00 77 1006.3
20260904011239 82 180 0.0 1.0 0.00 0.00 0.00 77 1006.2
20260904010731 83 180 0.0 1.0 0.00 0.00 0.00 77 1006.2
20260904010216 83 178 0.0 1.0 0.00 0.00 0.00 77 1006.2
20260904005700 83 178 0.0 3.0 0.00 0.00 0.00 76 1006.1
20260904005159 83 171 0.0 3.0 0.00 0.00 0.00 77 1006.2
20260904004652 83 165 0.0 4.0 0.00 0.00 0.00 75 1006.1
20260904004150 83 165 0.0 4.0 0.00 0.00 0.00 76 1006.0
20260904003651 83 165 0.0 4.0 0.00 0.00 0.00 75 1006.0
20260904003139 83 167 0.0 3.0 0.00 0.00 0.00 75 1006.1
20260904002642 84 167 0.0 5.0 0.00 0.00 0.00 74 1006.0
20260904002128 84 168 1.0 4.0 0.00 0.00 0.00 73 1006.1
20260904001630 84 160 1.0 6.0 0.00 0.00 0.00 73 1006.1
20260904001125 84 163 1.0 6.0 0.00 0.00 0.00 72 1006.1
20260904000612 84 163 1.0 6.0 0.00 0.00 0.00 72 1006.1
20260904000112 84 148 1.0 6.0 0.00 0.00 0.00 72 1006.1
20260903235836 84 164 1.0 5.0 0.00 0.00 0.00 71 1006.1
20260903235111 85 168 2.0 5.0 0.00 0.00 0.00 71 1006.0
20260903234610 85 159 2.0 8.0 0.00 0.00 0.00 70 1006.0
20260903234111 85 144 2.0 10.0 0.00 0.00 0.00 69 1006.0
20260903233834 85 180 2.0 10.0 0.00 0.00 0.00 68 1005.9
20260903233107 85 135 2.0 7.0 0.00 0.00 0.00 68 1005.8
20260903232556 85 148 3.0 7.0 0.00 0.00 0.00 68 1005.7
20260903232057 85 146 3.0 11.0 0.00 0.00 0.00 68 1005.6
20260903231552 85 145 3.0 11.0 0.00 0.00 0.00 68 1005.6
20260903231533 86 169 3.0 12.0 0.00 0.00 0.00 68 1005.5
20260903230542 86 136 3.0 12.0 0.00 0.00 0.00 67 1005.5
20260903230038 86 148 3.0 10.0 0.00 0.00 0.00 67 1005.5
20260903225534 86 141 2.0 7.0 0.00 0.00 0.00 67 1005.3
20260903225034 86 153 2.0 8.0 0.00 0.00 0.00 67 1005.4
20260903224734 86 91 3.0 13.0 0.00 0.00 0.00 68 1005.5
20260903224012 86 85 2.0 13.0 0.00 0.00 0.00 68 1005.7
20260903223725 85 153 2.0 6.0 0.00 0.00 0.00 68 1005.6
20260903223008 85 122 2.0 8.0 0.00 0.00 0.00 69 1005.6
20260903222509 85 151 2.0 8.0 0.00 0.00 0.00 70 1005.7
20260903222005 85 147 2.0 7.0 0.00 0.00 0.00 73 1005.7
20260903221505 85 184 1.0 2.0 0.00 0.00 0.00 74 1005.8
20260903221005 85 267 1.0 2.0 0.00 0.00 0.00 74 1005.8
20260903220729 85 355 1.0 3.0 0.00 0.00 0.00 73 1005.8
20260903220233 86 335 1.0 3.0 0.00 0.00 0.00 72 1005.8
20260903215455 87 224 1.0 5.0 0.00 0.00 0.00 71 1005.7
20260903214939 87 183 1.0 5.0 0.00 0.00 0.00 71 1005.6
20260903214438 87 156 2.0 8.0 0.00 0.00 0.00 71 1005.6
20260903213938 86 129 3.0 8.0 0.00 0.00 0.00 72 1005.7
20260903213438 86 113 2.0 6.0 0.00 0.00 0.00 74 1005.8
20260903212936 85 178 2.0 5.0 0.00 0.00 0.00 74 1005.7
20260903212434 84 116 1.0 4.0 0.00 0.00 0.00 74 1005.8
20260903212010 84 355 1.0 5.0 0.00 0.00 0.00 74 1006.0
20260903211408 85 117 2.0 9.0 0.00 0.00 0.00 73 1005.8
20260903210416 84 165 2.0 9.0 0.00 0.00 0.00 73 1005.9
20260903205911 84 146 1.0 8.0 0.00 0.00 0.00 72 1006.0
20260903205411 84 146 1.0 8.0 0.00 0.00 0.00 71 1006.0
20260903205351 84 157 1.0 5.0 0.00 0.00 0.00 71 1005.9
20260903204404 85 151 2.0 10.0 0.00 0.00 0.00 70 1006.1
20260903203856 85 152 3.0 10.0 0.00 0.00 0.00 69 1006.1
20260903203359 86 96 3.0 11.0 0.00 0.00 0.00 66 1006.1
20260903202858 87 143 4.0 15.0 0.00 0.00 0.00 67 1006.2
20260903202356 86 105 4.0 15.0 0.00 0.00 0.00 67 1006.2
20260903201856 87 136 4.0 14.0 0.00 0.00 0.00 66 1006.3
20260903201616 87 169 4.0 9.0 0.00 0.00 0.00 65 1006.4
20260903200852 88 155 5.0 10.0 0.00 0.00 0.00 64 1006.5
20260903200353 88 132 5.0 14.0 0.00 0.00 0.00 65 1006.6
20260903195849 89 178 4.0 14.0 0.00 0.00 0.00 62 1006.6
20260903195350 89 122 5.0 12.0 0.00 0.00 0.00 63 1006.6
20260903194850 89 167 6.0 15.0 0.00 0.00 0.00 62 1006.7
20260903194347 89 61 5.0 15.0 0.00 0.00 0.00 62 1006.7
20260903193844 89 101 4.0 11.0 0.00 0.00 0.00 63 1006.7
20260903193342 89 136 5.0 12.0 0.00 0.00 0.00 63 1006.8
20260903192844 90 198 5.0 12.0 0.00 0.00 0.00 63 1006.8
20260903192344 90 121 4.0 12.0 0.00 0.00 0.00 63 1006.7
20260903192058 89 94 4.0 13.0 0.00 0.00 0.00 62 1006.6
20260903191339 89 165 5.0 13.0 0.00 0.00 0.00 64 1006.8
20260903190840 89 169 6.0 13.0 0.00 0.00 0.00 62 1006.9
20260903190558 89 145 7.0 15.0 0.00 0.00 0.00 62 1006.8
20260903185834 88 138 7.0 15.0 0.00 0.00 0.00 63 1006.9
20260903185336 88 190 5.0 12.0 0.00 0.00 0.00 64 1006.8
20260903185056 88 189 5.0 11.0 0.00 0.00 0.00 65 1006.9
20260903184326 87 210 6.0 11.0 0.00 0.00 0.00 65 1006.9
20260903183824 87 144 5.0 11.0 0.00 0.00 0.00 65 1007.0
20260903183326 86 132 4.0 13.0 0.00 0.00 0.00 67 1007.0
20260903182819 86 173 4.0 14.0 0.00 0.00 0.00 69 1007.0
20260903182319 86 212 5.0 14.0 0.00 0.00 0.00 68 1007.2
20260903182045 86 209 5.0 14.0 0.00 0.00 0.00 65 1007.3
20260903181542 87 150 4.0 14.0 0.00 0.00 0.00 62 1007.1
20260903181304 87 179 4.0 12.0 0.00 0.00 0.00 63 1006.9
20260903180317 87 159 4.0 12.0 0.00 0.00 0.00 62 1007.0
20260903180036 88 180 5.0 13.0 0.00 0.00 0.00 62 1007.0
20260903175311 88 167 5.0 13.0 0.00 0.00 0.00 60 1007.0
20260903174812 88 150 4.0 11.0 0.00 0.00 0.00 62 1007.2
20260903174311 88 141 3.0 11.0 0.00 0.00 0.00 64 1007.2
20260903173811 87 150 3.0 11.0 0.00 0.00 0.00 66 1007.2
20260903173525 87 151 3.0 10.0 0.00 0.00 0.00 64 1007.3
20260903172806 87 163 2.0 9.0 0.00 0.00 0.00 65 1007.3
20260903172306 87 194 3.0 11.0 0.00 0.00 0.00 66 1007.4
20260903171805 86 196 3.0 11.0 0.00 0.00 0.00 67 1007.6
20260903171242 86 127 2.0 11.0 0.00 0.00 0.00 66 1007.6
20260903170735 85 144 3.0 8.0 0.00 0.00 0.00 68 1007.8
20260903170230 85 139 3.0 9.0 0.00 0.00 0.00 68 1007.8
20260903165726 84 170 3.0 9.0 0.00 0.00 0.00 69 1007.8
20260903165223 84 128 2.0 7.0 0.00 0.00 0.00 72 1007.9
20260903164723 83 164 2.0 7.0 0.00 0.00 0.00 70 1007.9
20260903164224 82 136 2.0 7.0 0.00 0.00 0.00 71 1008.0
20260903163721 82 133 2.0 7.0 0.00 0.00 0.00 73 1008.0
20260903163220 81 184 2.0 7.0 0.00 0.00 0.00 73 1007.9
20260903162708 80 151 2.0 7.0 0.00 0.00 0.00 74 1008.0
20260903162204 80 213 3.0 10.0 0.00 0.00 0.00 75 1008.1
20260903161935 79 135 2.0 10.0 0.00 0.00 0.00 76 1008.1
20260903161157 79 132 1.0 9.0 0.00 0.00 0.00 76 1008.1
20260903160656 79 142 1.0 6.0 0.00 0.00 0.00 78 1008.1
20260903160156 78 148 2.0 6.0 0.00 0.00 0.00 78 1008.2
20260903155652 78 138 1.0 3.0 0.00 0.00 0.00 78 1008.0
20260903155150 78 139 1.0 7.0 0.00 0.00 0.00 78 1008.0
20260903154649 78 137 1.0 7.0 0.00 0.00 0.00 79 1008.0
20260903154133 78 138 2.0 7.0 0.00 0.00 0.00 80 1007.9
20260903153630 77 137 2.0 7.0 0.00 0.00 0.00 81 1008.0
20260903153131 76 184 2.0 9.0 0.00 0.00 0.00 84 1008.1
20260903152602 76 184 2.0 9.0 0.00 0.00 0.00 84 1008.0
20260903152056 75 112 3.0 9.0 0.00 0.00 0.00 87 1007.9
20260903151553 75 134 4.0 9.0 0.00 0.00 0.00 88 1007.9
20260903151045 74 146 3.0 9.0 0.00 0.00 0.00 91 1007.9
20260903150757 74 147 2.0 6.0 0.00 0.00 0.00 92 1007.9
20260903150519 74 171 2.0 7.0 0.00 0.00 0.00 94 1007.9
20260903145526 74 155 1.0 7.0 0.00 0.00 0.00 95 1007.9
20260903145024 73 148 0.0 3.0 0.00 0.00 0.00 94 1007.9
20260903144519 73 148 0.0 5.0 0.00 0.00 0.00 95 1008.0
20260903144459 73 148 1.0 5.0 0.00 0.00 0.00 95 1008.0
20260903143507 73 156 1.0 3.0 0.00 0.00 0.00 95 1008.0
20260903143004 72 156 1.0 5.0 0.00 0.00 0.00 95 1008.0
20260903142502 72 165 1.0 5.0 0.00 0.00 0.00 95 1008.1
20260903142001 72 99 0.0 2.0 0.00 0.00 0.00 95 1008.1
20260903141451 72 99 0.0 2.0 0.00 0.00 0.00 95 1008.2
20260903140951 71 99 0.0 2.0 0.00 0.00 0.00 95 1008.1
20260903140449 71 99 0.0 1.0 0.00 0.00 0.00 95 1008.2
20260903135947 71 99 0.0 5.0 0.00 0.00 0.00 95 1008.3
20260903135447 71 99 1.0 5.0 0.00 0.00 0.00 95 1008.3
20260903135206 71 100 1.0 5.0 0.00 0.00 0.00 95 1008.4
20260903134438 71 43 0.0 5.0 0.00 0.00 0.00 95 1008.4
20260903133931 70 23 0.0 2.0 0.00 0.00 0.00 95 1008.3
20260903133420 70 23 0.0 2.0 0.00 0.00 0.00 95 1008.4
20260903132908 70 24 0.0 3.0 0.00 0.00 0.00 95 1008.5
20260903132404 70 29 0.0 3.0 0.00 0.00 0.00 95 1008.4
20260903131906 70 29 1.0 3.0 0.00 0.00 0.00 95 1008.3
20260903131355 69 30 1.0 3.0 0.00 0.00 0.00 95 1008.3
20260903130850 69 17 1.0 4.0 0.00 0.00 0.00 95 1008.3
20260903130333 69 17 0.0 4.0 0.00 0.00 0.00 95 1008.3
20260903125831 69 38 0.0 2.0 0.00 0.00 0.00 95 1008.4
20260903125330 69 38 1.0 4.0 0.00 0.00 0.00 95 1008.4
20260903124822 69 37 1.0 4.0 0.00 0.00 0.00 95 1008.5
20260903124312 69 33 1.0 3.0 0.00 0.00 0.00 95 1008.4
20260903123806 69 31 1.0 3.0 0.00 0.00 0.00 95 1008.3
20260903123258 69 109 0.0 2.0 0.00 0.00 0.00 95 1008.3
20260903122756 69 109 1.0 2.0 0.00 0.00 0.00 95 1008.3
20260903122517 69 109 0.0 2.0 0.00 0.00 0.00 95 1008.3
20260903121743 69 110 0.0 1.0 0.00 0.00 0.00 95 1008.4
20260903121238 68 110 0.0 2.0 0.00 0.00 0.00 95 1008.3
20260903120944 68 110 0.0 2.0 0.00 0.00 0.00 95 1008.3
20260903120215 68 110 0.0 3.0 0.00 0.00 0.00 95 1008.3
20260903115712 68 110 1.0 3.0 0.00 0.00 0.00 95 1008.2
20260903115212 68 136 0.0 2.0 0.00 0.00 0.00 95 1008.2
20260903114716 68 68 0.0 2.0 0.00 0.00 0.00 95 1008.2
20260903114210 68 68 0.0 1.0 0.00 0.00 0.00 95 1008.2
20260903113652 68 68 0.0 2.0 0.00 0.00 0.00 95 1008.2
20260903113146 68 67 1.0 2.0 0.00 0.00 0.00 95 1008.1
20260903112644 68 68 0.0 2.0 0.00 0.00 0.00 95 1008.4
20260903112634 68 32 0.0 1.0 0.00 0.00 0.00 95 1008.1
20260903111643 67 32 0.0 2.0 0.00 0.00 0.00 95 1008.1
20260903111116 67 32 0.0 2.0 0.00 0.00 0.00 95 1008.1
20260903110608 67 32 0.0 2.0 0.00 0.00 0.00 95 1008.3
20260903110324 67 32 0.0 2.0 0.00 0.00 0.00 95 1008.3
20260903105606 67 31 0.0 2.0 0.00 0.00 0.00 94 1008.3
20260903105058 67 31 0.0 1.0 0.00 0.00 0.00 94 1008.4
20260903104545 67 31 0.0 1.0 0.00 0.00 0.00 94 1008.3
20260903104302 67 31 0.0 1.0 0.00 0.00 0.00 94 1008.3
20260903103530 67 31 0.0 1.0 0.00 0.00 0.00 94 1008.3
20260903103247 67 31 0.0 1.0 0.00 0.00 0.00 94 1008.1
20260903102504 67 31 0.0 1.0 0.00 0.00 0.00 94 1008.1
20260903101949 67 31 0.0 1.0 0.00 0.00 0.00 94 1008.1
20260903101432 67 31 0.0 0.0 0.00 0.00 0.00 94 1008.0
20260903100924 67 31 0.0 0.0 0.00 0.00 0.00 94 1008.0
20260903100412 67 31 0.0 0.0 0.00 0.00 0.00 94 1008.1
20260903100121 67 31 0.0 0.0 0.00 0.00 0.00 94 1007.9
20260903095333 67 31 0.0 1.0 0.00 0.00 0.00 94 1007.8
20260903094829 67 31 0.0 1.0 0.00 0.00 0.00 94 1007.9
20260903094325 67 31 0.0 0.0 0.00 0.00 0.00 94 1008.1
20260903093826 67 31 0.0 0.0 0.00 0.00 0.00 94 1008.1
20260903093310 67 31 0.0 0.0 0.00 0.00 0.00 93 1008.0
20260903092803 67 31 0.0 1.0 0.00 0.00 0.00 93 1008.0
20260903092515 67 31 0.0 1.0 0.00 0.00 0.00 92 1008.0
20260903091745 67 31 0.0 1.0 0.00 0.00 0.00 91 1007.9
20260903091245 68 31 0.0 2.0 0.00 0.00 0.00 91 1008.0
20260903090717 69 31 0.0 2.0 0.00 0.00 0.00 89 1008.1
20260903090214 69 31 0.0 2.0 0.00 0.00 0.00 89 1008.0
20260903085716 69 29 0.0 2.0 0.00 0.00 0.00 89 1007.8
20260903085435 69 30 0.0 2.0 0.00 0.00 0.00 88 1007.9
20260903084705 70 30 0.0 2.0 0.00 0.00 0.00 89 1008.0
20260903084145 70 30 0.0 2.0 0.00 0.00 0.00 88 1007.9
20260903083909 70 30 0.0 1.0 0.00 0.00 0.00 88 1008.1
20260903083139 70 30 0.0 0.0 0.00 0.00 0.00 88 1008.2
20260903082612 70 30 0.0 0.0 0.00 0.00 0.00 88 1008.3
20260903082106 70 30 0.0 0.0 0.00 0.00 0.00 88 1008.4
20260903081601 70 30 0.0 0.0 0.00 0.00 0.00 88 1008.3
20260903081049 70 30 0.0 1.0 0.00 0.00 0.00 88 1008.3
20260903080534 70 30 0.0 1.0 0.00 0.00 0.00 87 1008.3
20260903080028 70 30 0.0 1.0 0.00 0.00 0.00 87 1008.3